| time (UTC) | temp C | wind direction | speed KPH | gust KPH | rain 1hr cm | rain 24hr cm | rain mn cm | humidity % | barometer mb |
| 20260506181545 | 11 | 260 | 3.2 | 11.3 | 0.00 | 0.86 | 0.13 | 53 | 1013.7 |
| 20260506180041 | 11 | 311 | 8.0 | 12.9 | 0.00 | 0.86 | 0.13 | 53 | 1013.6 |
| 20260506174538 | 12 | 321 | 6.4 | 9.7 | 0.00 | 0.86 | 0.13 | 53 | 1013.5 |
| 20260506173032 | 12 | 292 | 6.4 | 12.9 | 0.00 | 0.86 | 0.13 | 53 | 1013.7 |
| 20260506171530 | 12 | 351 | 8.0 | 12.9 | 0.00 | 0.86 | 0.13 | 53 | 1013.6 |
| 20260506170023 | 12 | 286 | 4.8 | 14.5 | 0.00 | 0.86 | 0.13 | 53 | 1013.5 |
| 20260506164521 | 11 | 285 | 1.6 | 9.7 | 0.00 | 0.89 | 0.13 | 53 | 1013.4 |
| 20260506163014 | 11 | 330 | 8.0 | 17.7 | 0.00 | 0.89 | 0.13 | 54 | 1013.9 |
| 20260506161510 | 11 | 317 | 11.3 | 16.1 | 0.00 | 0.89 | 0.13 | 53 | 1013.8 |
| 20260506160006 | 11 | 16 | 6.4 | 16.1 | 0.00 | 0.89 | 0.13 | 53 | 1013.6 |
| 20260506154500 | 11 | 5 | 0.0 | 11.3 | 0.00 | 0.89 | 0.13 | 50 | 1013.2 |
| 20260506153056 | 11 | 109 | 1.6 | 14.5 | 0.00 | 0.89 | 0.13 | 51 | 1013.6 |
| 20260506151552 | 11 | 13 | 4.8 | 14.5 | 0.00 | 0.89 | 0.13 | 49 | 1013.5 |
| 20260506150058 | 10 | 15 | 6.4 | 16.1 | 0.00 | 0.89 | 0.13 | 50 | 1013.3 |
| 20260506144600 | 10 | 9 | 6.4 | 17.7 | 0.00 | 0.89 | 0.13 | 48 | 1013.2 |
| 20260506143049 | 10 | 15 | 8.0 | 12.9 | 0.00 | 0.89 | 0.13 | 40 | 1013.1 |
| 20260506141535 | 9 | 346 | 9.7 | 12.9 | 0.00 | 0.89 | 0.13 | 34 | 1012.7 |
| 20260506140046 | 9 | 9 | 4.8 | 12.9 | 0.00 | 0.89 | 0.13 | 18 | 1012.8 |
| 20260506134532 | 7 | 269 | 4.8 | 12.9 | 0.00 | 0.89 | 0.13 | 1 | 1012.8 |
| 20260506133022 | 7 | 313 | 8.0 | 12.9 | 0.00 | 0.89 | 0.13 | 1 | 1012.7 |
| 20260506131519 | 7 | 11 | 4.8 | 14.5 | 0.00 | 0.89 | 0.13 | 1 | 1012.6 |
| 20260506130013 | 7 | 342 | 6.4 | 11.3 | 0.00 | 0.89 | 0.13 | 1 | 1012.5 |
| 20260506124509 | 7 | 22 | 0.0 | 8.0 | 0.00 | 0.89 | 0.13 | 1 | 1012.3 |
| 20260506123004 | 7 | 272 | 1.6 | 6.4 | 0.00 | 0.89 | 0.13 | 1 | 1012.1 |
| 20260506121602 | 7 | 230 | 1.6 | 4.8 | 0.00 | 0.89 | 0.13 | 1 | 1011.9 |
| 20260506114552 | 6 | 242 | 0.0 | 4.8 | 0.00 | 0.89 | 0.13 | 1 | 1011.4 |
| 20260506113051 | 6 | 269 | 3.2 | 4.8 | 0.00 | 0.89 | 0.13 | 1 | 1011.1 |
| 20260506111542 | 6 | 254 | 0.0 | 3.2 | 0.03 | 0.89 | 0.13 | 1 | 1011.0 |
| 20260506110042 | 6 | 290 | 0.0 | 3.2 | 0.03 | 0.89 | 0.13 | 1 | 1010.4 |
| 20260506104533 | 6 | 355 | 0.0 | 1.6 | 0.03 | 0.89 | 0.13 | 1 | 1010.3 |
| 20260506103029 | 6 | 355 | 0.0 | 3.2 | 0.03 | 0.89 | 0.13 | 1 | 1010.1 |
| 20260506101529 | 6 | 355 | 0.0 | 1.6 | 0.00 | 0.86 | 0.10 | 1 | 1010.2 |
| 20260506100021 | 6 | 355 | 0.0 | 6.4 | 0.00 | 0.86 | 0.10 | 1 | 1010.1 |
| 20260506094516 | 6 | 360 | 1.6 | 6.4 | 0.00 | 0.89 | 0.10 | 1 | 1009.6 |
| 20260506093011 | 6 | 5 | 1.6 | 4.8 | 0.00 | 0.89 | 0.10 | 1 | 1009.9 |
| 20260506091506 | 6 | 5 | 0.0 | 3.2 | 0.00 | 0.89 | 0.10 | 1 | 1009.2 |
| 20260506090004 | 6 | 9 | 0.0 | 0.0 | 0.00 | 0.89 | 0.10 | 1 | 1009.5 |
| 20260506084601 | 6 | 5 | 0.0 | 3.2 | 0.00 | 1.09 | 0.10 | 1 | 1009.8 |
| 20260506083058 | 6 | 9 | 1.6 | 8.0 | 0.00 | 1.09 | 0.10 | 1 | 1009.3 |
| 20260506081603 | 5 | 248 | 0.0 | 3.2 | 0.00 | 1.09 | 0.10 | 1 | 1009.0 |
| 20260506073038 | 6 | 14 | 1.6 | 6.4 | 0.00 | 1.19 | 0.10 | 1 | 1009.7 |
| 20260506071532 | 5 | 17 | 0.0 | 0.0 | 0.03 | 1.19 | 0.10 | 1 | 1009.4 |
| 20260506061514 | 6 | 17 | 0.0 | 1.6 | 0.03 | 1.22 | 0.08 | 1 | 1009.6 |
| 20260506044552 | 6 | 10 | 4.8 | 9.7 | 0.05 | 1.19 | 0.05 | 1 | 1009.2 |
| 20260506043042 | 7 | 13 | 1.6 | 9.7 | 0.05 | 1.17 | 0.03 | 1 | 1009.3 |
| 20260506041542 | 7 | 11 | 3.2 | 8.0 | 0.05 | 1.17 | 0.03 | 1 | 1009.5 |
| 20260506040035 | 7 | 19 | 0.0 | 0.0 | 0.05 | 1.14 | 0.00 | 1 | 1009.2 |
| 20260506034530 | 7 | 19 | 0.0 | 9.7 | 0.05 | 1.14 | 1.14 | 1 | 1009.0 |
| 20260506033028 | 7 | 9 | 4.8 | 12.9 | 0.03 | 1.12 | 1.12 | 1 | 1009.0 |
| 20260506031538 | 7 | 74 | 0.0 | 3.2 | 0.05 | 1.12 | 1.12 | 1 | 1009.2 |
| 20260506030016 | 7 | 73 | 0.0 | 3.2 | 0.03 | 1.09 | 1.09 | 1 | 1009.2 |
| 20260506024515 | 7 | 64 | 1.6 | 4.8 | 0.05 | 1.09 | 1.09 | 1 | 1009.1 |
| 20260506023007 | 7 | 62 | 1.6 | 6.4 | 0.08 | 1.09 | 1.09 | 1 | 1008.7 |
| 20260506021503 | 8 | 61 | 0.0 | 6.4 | 0.08 | 1.07 | 1.07 | 1 | 1008.9 |
| 20260506020059 | 8 | 63 | 0.0 | 1.6 | 0.10 | 1.07 | 1.07 | 1 | 1008.8 |
| 20260506014555 | 8 | 63 | 0.0 | 1.6 | 0.10 | 1.04 | 1.04 | 1 | 1008.6 |
| 20260506013103 | 8 | 62 | 0.0 | 1.6 | 0.13 | 1.02 | 1.02 | 1 | 1008.4 |
| 20260506011546 | 8 | 62 | 0.0 | 3.2 | 0.13 | 0.99 | 0.99 | 1 | 1008.0 |
| 20260506010053 | 8 | 59 | 0.0 | 3.2 | 0.13 | 0.97 | 0.97 | 1 | 1007.9 |
| 20260506004536 | 8 | 37 | 1.6 | 3.2 | 0.10 | 0.94 | 0.94 | 1 | 1008.1 |
| 20260506003032 | 8 | 360 | 4.8 | 8.0 | 0.08 | 0.89 | 0.89 | 1 | 1008.5 |
| 20260506001530 | 8 | 12 | 0.0 | 6.4 | 0.08 | 0.86 | 0.86 | 1 | 1008.4 |
| 20260506000023 | 8 | 12 | 0.0 | 0.0 | 0.05 | 0.84 | 0.84 | 1 | 1008.2 |
| 20260505234519 | 8 | 11 | 0.0 | 6.4 | 0.08 | 0.84 | 0.84 | 1 | 1008.1 |
| 20260505233014 | 8 | 15 | 1.6 | 14.5 | 0.05 | 0.81 | 0.81 | 1 | 1008.0 |
| 20260505231513 | 8 | 19 | 3.2 | 11.3 | 0.05 | 0.79 | 0.79 | 1 | 1008.3 |
| 20260505230005 | 8 | 18 | 8.0 | 17.7 | 0.05 | 0.79 | 0.79 | 1 | 1008.3 |
| 20260505224501 | 9 | 5 | 8.0 | 14.5 | 0.05 | 0.76 | 0.76 | 1 | 1008.3 |
| 20260505223057 | 9 | 360 | 8.0 | 16.1 | 0.05 | 0.76 | 0.76 | 1 | 1008.2 |
| 20260505221552 | 9 | 11 | 6.4 | 16.1 | 0.05 | 0.71 | 0.71 | 1 | 1008.2 |
| 20260505220048 | 9 | 351 | 8.0 | 19.3 | 0.05 | 0.71 | 0.71 | 1 | 1008.1 |
| 20260505214544 | 10 | 18 | 11.3 | 22.5 | 0.05 | 0.71 | 0.71 | 1 | 1007.9 |
| 20260505213038 | 10 | 355 | 9.7 | 14.5 | 0.05 | 0.71 | 0.71 | 1 | 1007.6 |
| 20260505211535 | 10 | 16 | 4.8 | 12.9 | 0.05 | 0.69 | 0.69 | 1 | 1007.4 |
| 20260505210030 | 10 | 5 | 4.8 | 17.7 | 0.08 | 0.69 | 0.69 | 1 | 1007.3 |
| 20260505204525 | 11 | 355 | 11.3 | 14.5 | 0.05 | 0.66 | 0.66 | 1 | 1007.1 |
| 20260505203029 | 11 | 14 | 1.6 | 4.8 | 0.08 | 0.64 | 0.64 | 1 | 1006.8 |
| 20260505201518 | 11 | 24 | 0.0 | 3.2 | 0.15 | 0.64 | 0.64 | 1 | 1006.8 |
| 20260505200012 | 11 | 22 | 0.0 | 3.2 | 0.15 | 0.61 | 0.61 | 1 | 1006.7 |
| 20260505194507 | 11 | 18 | 0.0 | 6.4 | 0.20 | 0.61 | 0.61 | 1 | 1007.3 |
| 20260505193003 | 11 | 9 | 1.6 | 3.2 | 0.15 | 0.56 | 0.56 | 1 | 1007.6 |
| 20260505191608 | 11 | 13 | 3.2 | 9.7 | 0.08 | 0.48 | 0.48 | 1 | 1007.7 |
| 20260505184550 | 10 | 5 | 1.6 | 8.0 | 0.00 | 0.41 | 0.41 | 1 | 1007.5 |
| 20260505183109 | 10 | 5 | 4.8 | 8.0 | 0.00 | 0.41 | 0.41 | 1 | 1007.3 |